Flag for Belgium Weather past 2 weeks in Ghent, Belgium

Now
61 °F

Cool.


Feels Like: 61 °F
Forecast: 56 / 72 °F
Wind: 3 mph from Northwest

Location: Munte

Current Time: Jul 30, 2014 at 12:55:11 AM

Latest Report: Jul 30, 2014 at 12:00 AM


Visibility: 8 mi

Pressure: 29.94 "Hg

Humidity: 97%

Dew point: 60 °F

Location of GhentLocation

Historic Weather in Ghent — Graph

°F

Ghent temperature yesterday

Maximum temperature yesterday: 74 °F (at 1:00 PM)
Minimum temperature yesterday: 58 °F (at 5:00 AM)
Average temperature yesterday: 65 °F

Past Weeks' High & Low Weather Summary

 TemperatureHumidityPressure
High90 °F (Jul 18, 6:00 PM)100% (Jul 16, 6:00 AM)30.20 "Hg (Jul 16, 6:00 AM)
Low56 °F (Jul 15, 4:00 AM)37% (Jul 18, 6:00 PM)29.76 "Hg (Jul 19, 8:00 PM)
Average68 °F79%29.99 "Hg
* Reported Jul 14 11:00 PM — Jul 29 11:00 PM, Ghent, Weather by CustomWeather, © 2014

Note: Actual official high and low records may vary slightly from our data, if they occured in-between our weather recording intervals... More about our weather records

Advertising

Ghent weather history for previous 24 hours

 ConditionsComfort  
Time TempWeatherWind HumidityBarometerVisibility
11:00 PM
Jul 29
63 °FMild.5 mph94%29.94 "Hg12 mi
10:00 PM64 °FMild.5 mph90%29.93 "Hg15 mi
9:00 PM66 °FMild.5 mph87%29.91 "Hg15 mi
8:00 PM68 °FMild.7 mph83%29.90 "Hg18 mi
7:00 PM70 °FMild.6 mph81%29.90 "Hg12 mi
6:00 PM70 °FMild.5 mph85%29.90 "Hg12 mi
5:00 PM70 °FOvercast.6 mph83%29.88 "Hg9 mi
4:00 PM71 °FOvercast.5 mph83%29.88 "Hg7 mi
3:00 PM72 °FOvercast.6 mph83%29.89 "Hg6 mi
2:00 PM73 °FOvercast.5 mph83%29.89 "Hg6 mi
1:00 PM74 °FOvercast.3 mph77%29.90 "Hg5 mi
12:00 PM72 °FFog.3 mph81%29.90 "Hg3 mi
11:00 AM67 °FFog.2 mph94%29.90 "Hg2 mi
10:00 AM65 °FFog.2 mph98%29.90 "Hg2 mi
9:00 AM62 °FFog.N/A97%29.90 "Hg2 mi
8:00 AM61 °FFog.N/A96%29.91 "Hg2 mi
7:00 AM60 °FFog.N/A97%29.90 "Hg2 mi
6:00 AM59 °FFog.N/A98%29.90 "Hg2 mi
5:00 AM58 °FFog.N/A99%29.91 "Hg2 mi
4:00 AM58 °FCool.N/A98%29.90 "Hg3 mi
3:00 AM59 °FCool.N/A98%29.91 "Hg6 mi
2:00 AM58 °FCool.N/A99%29.92 "Hg5 mi
1:00 AM59 °FCool.N/A98%29.92 "Hg6 mi
12:00 AM59 °FCool.N/A97%29.93 "Hg6 mi
Weather by CustomWeather, © 2014

See weather overviewHow to use our weather pages